This demonstration page uses our WeatherBlox Daily Observations layout. Learn more.

Left ArrowRight Arrow

44.89941, -97.11507

Hourly Observations for September 17, 2018

Temp ( °F °C ) Dew Point ( °F °C ) Humidity (%) Winds ( mph kmh ) Pressure ( in mb ) Visibility ( mi km ) Precip ( " mm )
12:53 am 00:53 Clear 65 18.3 61 16.1 87 87 N 7 11 29.88 1012 10 16 0.00 0.00
1:53 am 01:53 Clear 62 16.7 56 13.3 80 80 NNE 15 24 29.89 1012 10 16 0.00 0.00
2:53 am 02:53 Clear 57 13.9 54 12.2 90 90 NNE 14 22 29.91 1013 10 16 0.00 0.00
3:53 am 03:53 Clear 55 12.8 53 11.7 93 93 NNE 12 19 29.92 1013 10 16 0.00 0.00
4:53 am 04:53 Clear 54 12.2 52 11.1 93 93 NNE 9 15 29.91 1013 10 16 0.00 0.00
5:53 am 05:53 Clear 54 12.2 51 10.6 90 90 NE 14 22 29.89 1012 10 16 0.00 0.00
6:53 am 06:53 Clear 53 11.7 50 10 89 89 NE 15 24 29.92 1013 10 16 0.00 0.00
7:30 am 07:30 Mostly Sunny 52 11.1 50 10 93 93 NNE 14 22 29.94 1014 10 16 0.00 0.00
7:53 am 07:53 Partly Cloudy 52 11.1 50 10 93 93 NE 14 22 29.95 1014 10 16 0.00 0.00
8:03 am 08:03 Mostly Cloudy 52 11.1 50 10 93 93 NE 12 19 30.00 1016 10 16 0.00 0.00
8:10 am 08:10 Mostly Cloudy 52 11.1 50 10 93 93 NE 15 24 30.00 1016 10 16 0.00 0.00
8:37 am 08:37 Cloudy 52 11.1 49 9.4 89 89 NNE 17 28 30.00 1016 10 16 0.00 0.00
8:53 am 08:53 Cloudy 51 10.6 48 8.9 89 89 NE 14 22 29.96 1015 10 16 0.00 0.00
9:53 am 09:53 Cloudy 51 10.6 48 8.9 89 89 NE 9 15 29.96 1015 10 16 0.00 0.00
10:16 am 10:16 Cloudy with Nearby Thunderstorms 51 10.6 48 8.9 89 89 N 12 19 30.00 1016 10 16 0.00 0.00
10:19 am 10:19 Cloudy with Thunderstorms 51 10.6 48 8.9 89 89 WSW 32 52 30.12 1020 10 16 0.00 0.00
10:21 am 10:21 Cloudy with Thunderstorms 52 11.1 48 8.9 86 86 WSW 32 52 30.12 1020 10 16 0.00 0.00
10:24 am 10:24 Windy with Storms Likely 52 11.1 49 9.4 89 89 WSW 23 37 30.09 1019 10 16 0.00 0.03
10:38 am 10:38 Cloudy with Strong Thunderstorms 51 10.6 50 10 96 96 N 25 41 30.00 1016 2 3 0.24 6.10
10:41 am 10:41 Cloudy with Strong Thunderstorms 50 10 50 10 100 100 NNE 33 54 29.94 1014 1 2 0.33 8.38
10:47 am 10:47 Cloudy with Strong Thunderstorms 50 10 48 9 94 94 NW 21 33 30.03 1017 2 2 0.35 8.89
10:51 am 10:51 Windy with Storms Likely 50 10 50 10 100 100 N 24 39 30.03 1017 3 5 0.35 8.89
10:53 am 10:53 Windy with Storms Likely 50 10 50 10 100 100 N 30 48 30.02 1017 6 10 0.35 8.89
11:01 am 11:01 Partly Cloudy with Nearby Thunderstorms 50 10 49 9.4 96 96 NNE 25 41 30.03 1017 10 16 0.00 0.03
11:15 am 11:15 Sunny with Nearby Thunderstorms 56 13.3 50 10 81 81 NE 20 31 29.97 1015 10 16 0.00 0.03
11:23 am 11:23 Sunny 57 13.9 50 10 78 78 NE 15 24 29.97 1015 10 16 0.00 0.03
11:53 am 11:53 Sunny 58 14.4 51 10.6 78 78 E 8 13 29.97 1015 10 16 0.00 0.03
12:53 pm 12:53 Partly Cloudy 61 16.1 52 11.1 72 72 E 10 17 29.95 1014 10 16 0.00 0.00
1:53 pm 13:53 Sunny 69 20.6 50 10 51 51 E 13 20 29.89 1012 10 16 0.00 0.00
2:53 pm 14:53 Sunny 65 18.3 51 10.6 61 61 ESE 14 22 29.91 1013 10 16 0.00 0.00
3:53 pm 15:53 Sunny 69 20.6 52 11.1 55 55 E 10 17 29.93 1013 10 16 0.00 0.00
4:53 pm 16:53 Sunny 67 19.4 51 10.6 57 57 E 10 17 29.93 1014 10 16 0.00 0.00
5:53 pm 17:53 Sunny 66 18.9 54 12.2 65 65 ESE 9 15 29.94 1014 10 16 0.00 0.00
6:53 pm 18:53 Sunny 63 17.2 55 12.8 76 76 ENE 8 13 29.95 1014 10 16 0.00 0.00
7:53 pm 19:53 Clear 55 12.8 52 11.1 90 90 NE 9 15 29.97 1015 10 16 0.00 0.00
8:53 pm 20:53 Clear 54 12.2 51 10.6 90 90 NE 9 15 29.98 1015 10 16 0.00 0.00
9:53 pm 21:53 Clear 53 11.7 50 10 89 89 ENE 8 13 29.99 1016 10 16 0.00 0.00
10:53 pm 22:53 Clear 53 11.7 50 10 89 89 ENE 9 15 30.00 1016 10 16 0.00 0.00
11:53 pm 23:53 Mostly Cloudy 54 12.2 51 10.6 90 90 ENE 5 7 29.99 1016 10 16 0.00 0.00

Powered by AerisWeather